Location: Cactus School
(34.5700°N, 118.0931°W)
Time: 08:48:16
(UTC-07:00)

Vanguard 1 Rocket - Pass Details

Date: 21 April 2024
Orbit: 650 x 4220 km, 34.3° (Epoch: 22 May)

Event Time Altitude Azimuth Distance (km) Brightness Sun altitude
Rises 19:54:41 0° 262° (W) 3,029 11.4 -5.7°
Reaches altitude 10° 19:56:40 10° 261° (W) 2,222 10.5 -6.1°
Maximum altitude 20:01:35 85° 174° (S) 946 7.5 -7.1°
Drops below altitude 10° 20:09:53 10° 86° (E) 3,651 9.9 -8.7°
Enters shadow 20:11:28 - 86° (E) 4,245 10.3 -9.0°
